Regional Weather Roundup
Issued by NWS

Home | Current Version | Previous Version | Text Only | Print | Product List | Glossary On
Versions: 1 2 3 4 5 6 7 8 9 10 11 12 13 14 15 16 17 18 19 20 21 22 23 24 25 26 27 28 29 30 31 32 33 34 35 36 37 38 39 40 41 42 43 44 45 46 47 48 49 50
000
ASUS43 KDTX 151710
RWRMI
MICHIGAN HOURLY REGIONAL WEATHER ROUNDUP
NATIONAL WEATHER SERVICE DETROIT/PONTIAC MI
1200 PM EST MON JAN 15 2018

NOTE: "FAIR" INDICATES FEW OR NO CLOUDS BELOW 12,000 FEET WITH NO
SIGNIFICANT WEATHER AND/OR OBSTRUCTION TO VISIBILITY.

MIZ047>049-052>055-059>063-066>070-074>076-081>083-151800-
SOUTHEAST LOWER MICHIGAN

CITY           SKY/WX    TMP DP  RH WIND       PRES   REMARKS
ADRIAN         LGT SNOW  18  14  84 SE8       30.26F FOG     WCI   8
ALMA           LGT SNOW  18  13  84 E13       30.27F WCI   4
ANN ARBOR      LGT SNOW  19  13  77 E10       30.26F VSB 1   WCI   7
BAD AXE        FLURRIES  17  11  75 SE10G17   30.34F WCI   5
CARO           PTSUNNY   18  10  72 SE13G18   30.32F WCI   4
DETROIT CITY   FLURRIES  19  13  77 SE12      30.32F WCI   7
DETROIT        LGT SNOW  20  15  81 E9        30.29F WCI   9
FLINT          LGT SNOW  17  11  77 SE14      30.28F WCI   3
GROSSE ILE     LGT SNOW  20  16  84 SE8       30.29F WCI  11
HILLSDALE      LGT SNOW  19  12  73 SE9       30.19F VSB 1   WCI   9
HOWELL         LGT SNOW  18  14  86 SE9       30.24F WCI   6

CITY           SKY/WX    TMP DP  RH WIND       PRES   REMARKS
JACKSON        LGT SNOW  17  12  80 E10       30.22F VSB 1   WCI   5
LAMBERTVILLE   LGT SNOW  18  14  83 SE6       30.27F WCI  10
LANSING        LGT SNOW  18  13  80 SE10      30.25F WCI   6
LAPEER         LGT SNOW  17  11  74 SE9       30.31F WCI   6
MASON          LGT SNOW  19  12  72 SE9       30.23F WCI   9
MONROE         LGT SNOW  19  14  82 SE9       30.29F WCI   7
MT. CLEMENS    LGT SNOW  18  15  89 E13       30.32F FOG     WCI   5
PONTIAC        LGT SNOW  17  12  80 SE16      30.26F BLWGSNOWWCI   2
PORT HOPE        N/A     19  12  74 SE18G26   30.35F WCI   4
PORT HURON     LGT SNOW  18  10  73 SE12      30.35F WCI   5
TRI CITIES     LGT SNOW  17  13  84 E10       30.31F FOG     WCI   5
MIDLAND        LGT SNOW  18  12  79 E9        30.32F WCI   6
TROY           LGT SNOW  19  15  82 E9        30.32F WCI   8
SAGINAW HB     LGT SNOW  19  14  79 SE9       30.31F WCI   9
$$
MIZ043>046-050>051-056>058-064>065-071>073-077>080-151800-
SOUTHWEST LOWER MICHIGAN

CITY           SKY/WX    TMP DP  RH WIND       PRES   REMARKS
BATTLE CREEK   LGT SNOW  17  13  84 SE10      30.20F VSB 1   WCI   5
BENTON HARBOR  LGT SNOW  21  14  74 SE8       30.18F WCI  11
BIG RAPIDS     LGT SNOW  16  10  75 SE14      30.23F WCI   2
COLDWATER      LGT SNOW  19  15  85 SE10      30.20F WCI   7
FREMONT        LGT SNOW  17   9  70 E12G18    30.22F WCI   5
GRAND RAPIDS   LGT SNOW  17  12  80 E14       30.22F VSB 1   WCI   3
IONIA          LGT SNOW  18  14  84 E10G16    30.24S VSB 1   WCI   6
KALAMAZOO      LGT SNOW  19  13  77 SE9       30.20F VSB 1   WCI   8
LUDINGTON      CLOUDY    18  11  75 SE10G18   30.22F HAZE    WCI   6
MARSHALL       LGT SNOW  17  12  82 SE9       30.21F WCI   5
MOUNT PLEASANT PTSUNNY   19  11  73 E14       30.27F WCI   5
MUSKEGON       LGT SNOW  18  12  77 E12       30.22F WCI   5
SOUTH HAVEN    LGT SNOW  20  14  76 SE7       30.19F WCI  11
$$
MIZ016>042-151800-
NORTHERN LOWER MICHIGAN

CITY           SKY/WX    TMP DP  RH WIND       PRES   REMARKS
ALPENA         CLOUDY    21  14  74 SE20G28   30.36F WCI   6
BEAVER ISLAND  LGT SNOW  19  13  76 E13G18    30.33F WCI   6
BELLAIRE       CLOUDY    18  11  74 SE14      30.33S WCI   4
CADILLAC       LGT SNOW  15   9  80 E14       30.21F WCI   0
CHARLEVOIX     CLOUDY    18   9  66 E13G18    30.35S WCI   5
FRANKFORT      CLOUDY    19  11  69 SE12      30.26F HAZE    WCI   7
GAYLORD        CLOUDY    14   8  77 SE14      30.27S HAZE    WCI  -1
GRAYLING       LGT SNOW  15   8  72 SE14      30.29S WCI   1
HARBOR SPRINGS CLOUDY    19   8  62 E12G17    30.33S WCI   7
HOUGHTON LAKE  LGT SNOW  15   9  76 SE13G21   30.27F WCI   1
MANISTEE       FLURRIES  18  10  71 E12G21    30.24F WCI   5
OSCODA         LGT SNOW  20  13  74 SE8G20    30.34F WCI  10
PELLSTON       CLOUDY    18  10  71 SE9       30.35S WCI   7
ROGERS CITY    LGT SNOW  18  15  87 CALM      30.38F VSB 1
TRAVERSE CITY  LGT SNOW  19   9  65 SE10G17   30.28F WCI   7
$$
MIZ007>008-015-151800-
EASTERN UPPER MICHIGAN

CITY           SKY/WX    TMP DP  RH WIND       PRES   REMARKS
KINROSS        SNOW      19  16  88 E16       30.37F VSB 1/2 WCI   4
MACKINAC ISLAN LGT SNOW  18  11  74 SE7       30.35F WCI   9
NEWBERRY       CLOUDY    16  12  85 E10       30.35S FOG     WCI   4
S. S. MARIE    SNOW      19  15  84 E10G20    30.39R VSB 1/2 WCI   7
MUNISING         N/A     18  14  84 SE9G18    30.32S WCI   7
$$
MIZ004>006-011>014-085-151800-
CENTRAL UPPER MICHIGAN

CITY           SKY/WX    TMP DP  RH WIND       PRES   REMARKS
MANISTIQUE     LGT SNOW  18  17  94 E12       30.32F WCI   5
ESCANABA       LGT SNOW  21  18  86 E13       30.29S VSB 3/4 WCI   9
MENOMINEE      LGT SNOW  23  19  85 SE13      30.24S FOG     WCI  11
SAWYER-GWINN   LGT SNOW  16  12  86 E8        30.26S WCI   5
$$
MIZ001>003-009>011-084-151800-
WESTERN UPPER MICHIGAN

CITY           SKY/WX    TMP DP  RH WIND       PRES   REMARKS
IRON MOUNTAIN  LGT SNOW  21  17  84 E9        30.20S VSB 3/4 WCI  11
HOUGHTON       LGT SNOW  21  15  78 E13       30.28S WCI   9
COPPER HARBOR    N/A     23  18  81 VRB6      30.34R WCI  16
IRONWOOD       LGT SNOW  14   9  80 E3        30.25S
$$

ABBREVIATIONS USED IN REMARKS
   TC - TEMPERATURE IN CELSIUS
  WCI - WIND CHILL INDEX
   HX - HEAT INDEX
  VSB - VISIBILITY





USA.gov is the U.S. government's official web portal to all federal, state and local government web resources and services.